This is the latest recevied weather packets stored in our database for station/object G4KVI. If no packets are shown the sender has not sent any weather packets the latest 10 day(s).
| Time | Temp. | Humidity | Pressure | Rain* | Wind** | Luminosity | Snow |
|---|---|---|---|---|---|---|---|
| 1777797005 | 14.44° C | 78% | 1012.2 hPa | 0 mm | - | 715 W/m² | - |
| 1777796705 | 14.44° C | 77% | 1012.3 hPa | 0 mm | - | 697 W/m² | - |
| 1777796406 | 13.89° C | 79% | 1012.1 hPa | 0 mm | - | 584 W/m² | - |
| 1777796106 | 13.89° C | 78% | 1012.2 hPa | 0 mm | - | 443 W/m² | - |
| 1777795806 | 13.89° C | 82% | 1012.1 hPa | 0 mm | - | 372 W/m² | - |
| 1777795506 | 13.33° C | 81% | 1012.2 hPa | 0 mm | - | 411 W/m² | - |
| 1777795205 | 13.33° C | 83% | 1012.2 hPa | 0 mm | - | 275 W/m² | - |
| 1777794906 | 13.33° C | 83% | 1012 hPa | 0 mm | - | 251 W/m² | - |
| 1777794606 | 12.78° C | 85% | 1012.1 hPa | 0 mm | - | 259 W/m² | - |
| 1777794306 | 12.22° C | 88% | 1012.1 hPa | 0 mm | - | 233 W/m² | - |
| 1777794005 | 12.22° C | 87% | 1012.2 hPa | 0 mm | - | 207 W/m² | - |
| 1777793706 | 12.22° C | 87% | 1012.3 hPa | 0 mm | - | 167 W/m² | - |
| 1777793406 | 12.22° C | 87% | 1012.1 hPa | 0 mm | - | 151 W/m² | - |
| 1777793106 | 12.22° C | 89% | 1012.1 hPa | 0 mm | - | 200 W/m² | - |
| 1777792805 | 12.22° C | 89% | 1012.3 hPa | 0 mm | - | 223 W/m² | - |
| 1777792505 | 12.22° C | 89% | 1012.1 hPa | 0 mm | - | 179 W/m² | - |
| 1777792206 | 12.22° C | 90% | 1012.1 hPa | 0 mm | - | 152 W/m² | - |
| 1777791905 | 12.22° C | 93% | 1012 hPa | 0 mm | - | 217 W/m² | - |
| 1777791605 | 11.67° C | 94% | 1012 hPa | 0 mm | - | 183 W/m² | - |
| 1777791305 | 11.67° C | 95% | 1012.3 hPa | 0 mm | - | 137 W/m² | - |
| 1777791005 | 11.67° C | 96% | 1012.2 hPa | 0 mm | - | 93 W/m² | - |
| 1777790705 | 11.67° C | 96% | 1012.1 hPa | 0 mm | - | 152 W/m² | - |
| 1777790405 | 11.11° C | 97% | 1012 hPa | 0 mm | - | 149 W/m² | - |
| 1777790105 | 11.11° C | 96% | 1012 hPa | 0 mm | - | 147 W/m² | - |
| 1777789805 | 10.56° C | 97% | 1012.1 hPa | 0 mm | - | 165 W/m² | - |
* Rain latest hour (hover to see other rain measurements)
** Current wind speed in m/s (hover to see current wind gust speed)